Simultaneous Nadir Overpasses (SNOs) Predictions

Prediction of SNOs between AURA and NPP Satellite Orbit:

Table of predicted SNOs for the next 14.0 days since TLE Epoch: 4/10/2020
Index Date (AURA) Time (AURA) Lat,Lon (AURA) SZA (AURA ) Date (NPP) Time (NPP) Lat,Lon (NPP) SZA (NPP ) Distance(km) Time Diff (sec)
1 04/12/2020 03:41:42 79.46, 21.07 83.81 04/12/2020 03:41:16 79.46, 21.02 83.84 0.89 26
2 04/12/2020 04:31:01 -79.76,-169.13 96.65 04/12/2020 04:31:52 -79.76,-169.04 96.71 1.96 51
3 04/14/2020 19:11:10 -72.57, -54.52 89.11 04/14/2020 19:09:57 -72.89, -56.56 88.77 76.32 73
4 04/14/2020 19:58:06 79.62, 138.12 82.59 04/14/2020 19:58:06 79.63, 138.24 82.56 2.53 0
5 04/17/2020 11:25:16 -79.34, 84.40 97.95 04/17/2020 11:24:26 -79.33, 84.26 97.89 3.06 50
6 04/17/2020 12:14:34 79.64,-105.91 81.61 04/17/2020 12:15:01 79.64,-105.92 81.59 0.17 27
7 04/20/2020 03:41:39 -79.50,-158.62 99.12 04/20/2020 03:41:15 -79.51,-158.57 99.11 1.13 24
8 04/20/2020 04:31:00 79.68, 10.29 80.61 04/20/2020 04:31:54 79.67, 10.18 80.59 2.23 54
9 04/22/2020 19:09:17 77.96, 141.03 82.05 04/22/2020 19:08:03 78.09, 140.56 82.15 17.52 74




NCC Satellite Simultaneous Nadir Overpasses (SNOs) Prediction Service
